Regional Weather Roundup
Issued by NWS Little Rock, AR

Home | Current Version | Previous Version | Graphics & Text | Print | Product List | Glossary On
Versions: 1 2 3 4 5 6 7 8 9 10 11 12 13 14 15 16 17 18 19 20 21 22 23 24 25 26 27 28 29 30 31 32 33 34 35 36 37 38 39 40 41 42 43 44 45 46 47 48 49 50
231
ASUS44 KLZK 061105
RWRLZK

WEATHER ROUNDUP FOR ARKANSAS
NATIONAL WEATHER SERVICE LITTLE ROCK AR
500 AM CST SAT FEB 06 2016

NOTE: "FAIR" INDICATES FEW OR NO CLOUDS BELOW 12,000 FEET WITH NO
SIGNIFICANT WEATHER AND/OR OBSTRUCTIONS TO VISIBILITY.

ARZ001-003-010-029-061200-
NORTHWEST ARKANSAS

CITY           SKY/WX    TMP DP  RH WIND       PRES   REMARKS
FAYETTEVILLE   PTCLDY    26  22  84 CALM      30.30S
FORT SMITH     MOCLDY    35  23  61 CALM      30.33R
HARRISON       PTCLDY    33  17  51 SE3       30.29S
BENTONVILLE    CLEAR     34  18  51 CALM      30.29S
ROGERS         CLEAR     29  21  72 S3        30.29S
SILOAM SPGS    CLEAR     34  16  47 S6        30.29S WCI  29
HIGHFILL       PTCLDY    34  19  54 SW3       30.28S
$$

ARZ004-005-016-061200-
NORTH CENTRAL ARKANSAS

CITY           SKY/WX    TMP DP  RH WIND       PRES   REMARKS
BATESVILLE     PTCLDY    34  21  60 CALM      30.34S
FLIPPIN        PTCLDY    28  19  69 CALM      30.30R
MTN HOME       CLEAR     32  16  51 CALM      30.30S
$$

ARZ040-041-061200-
WEST CENTRAL ARKANSAS

CITY           SKY/WX    TMP DP  RH WIND       PRES   REMARKS
MENA           CLOUDY    30  27  86 CALM      30.30S
MOUNT IDA      PTCLDY    26  20  77 CALM      30.28F
$$

ARZ009-017-025-026-028-061200-
NORTHEAST ARKANSAS

CITY           SKY/WX    TMP DP  RH WIND       PRES   REMARKS
CORNING        FAIR      32  25  74 CALM      30.35S
JONESBORO      CLEAR     29  25  85 CALM      30.35S
NEWPORT        CLOUDY    31  25  78 CALM      30.36S
WALNUT RIDGE   CLEAR     28  21  74 S5        30.35R WCI  23
BLYTHEVILLE    CLEAR     36  25  64 SW5       30.36S
$$

ARZ022-023-033-042-044-061200-
CENTRAL ARKANSAS

CITY           SKY/WX    TMP DP  RH WIND       PRES   REMARKS
LITTLE ROCK    MOCLDY    31  25  78 CALM      30.35S
N LITTLE ROCK    N/A     37  22  54 SW5       30.35S
JACKSONVILLE   MOCLDY    26  22  83 CALM      30.34S
SEARCY         PTCLDY    28  25  88 N3        30.37R
HOT SPRINGS    CLEAR     29  23  78 NW3       30.34R
RUSSELLVILLE   PTCLDY    27  22  81 CALM      30.33S
CLINTON        FAIR      23  21  93 CALM      30.36S
$$

ARZ036-061200-
EAST ARKANSAS

CITY           SKY/WX    TMP DP  RH WIND       PRES   REMARKS
WEST MEMPHIS   CLOUDY    34  31  88 CALM      30.35S
$$

ARZ050-053-066-070-073-061200-
SOUTHWEST ARKANSAS

CITY           SKY/WX    TMP DP  RH WIND       PRES   REMARKS
ARKADELPHIA    FAIR      30  28  92 CALM      30.35R
CAMDEN         PTCLDY    30  25  80 CALM      30.34R
TEXARKANA      CLOUDY    37  26  64 S3        30.32R
EL DORADO      PTCLDY    35  25  66 SW3       30.33R
DE QUEEN       MOCLDY    31  28  89 E5        30.30S WCI  26
$$

ARZ056-057-069-061200-
SOUTHEAST ARKANSAS

CITY           SKY/WX    TMP DP  RH WIND       PRES   REMARKS
PINE BLUFF     CLOUDY    31  26  82 CALM      30.35S
STUTTGART      MOCLDY    37  27  65 SE6       30.35S
MONTICELLO     PTCLDY    33  28  81 CALM      30.34F

$$






USA.gov is the U.S. government's official web portal to all federal, state and local government web resources and services.